This is the latest recevied weather packets stored in our database for station/object KB4RFE. If no packets are shown the sender has not sent any weather packets the latest 10 day(s).
| Time | Temp. | Humidity | Pressure | Rain* | Wind** | Luminosity | Snow |
|---|---|---|---|---|---|---|---|
| 1788564430 | 28.89° C | 84% | 1017.7 hPa | 0 mm | - | 10 W/m² | - |
| 1788564127 | 28.89° C | 84% | 1017.6 hPa | 0 mm | - | 14 W/m² | - |
| 1788563821 | 28.89° C | 83% | 1017.5 hPa | 0 mm | - | 19 W/m² | - |
| 1788563517 | 28.89° C | 84% | 1017.5 hPa | 0 mm | - | 24 W/m² | - |
| 1788563216 | 28.89° C | 83% | 1017.4 hPa | 0 mm | - | 28 W/m² | - |
| 1788562911 | 28.89° C | 83% | 1017.4 hPa | 0 mm | - | 26 W/m² | - |
| 1788562610 | 28.89° C | 83% | 1017.7 hPa | 0 mm | - | 28 W/m² | - |
| 1788562305 | 28.89° C | 83% | 1017.6 hPa | 0 mm | - | 44 W/m² | - |
| 1788561999 | 28.89° C | 83% | 1017.3 hPa | 0 mm | - | 30 W/m² | - |
| 1788561693 | 28.89° C | 82% | 1017.4 hPa | 0 mm | - | 39 W/m² | - |
| 1788561393 | 28.89° C | 82% | 1017.4 hPa | 0 mm | - | 32 W/m² | - |
| 1788561088 | 28.89° C | 82% | 1017.4 hPa | 0 mm | - | 36 W/m² | - |
| 1788560784 | 29.44° C | 83% | 1017.5 hPa | 0 mm | - | 61 W/m² | - |
| 1788560480 | 29.44° C | 83% | 1017.4 hPa | 0 mm | - | 46 W/m² | - |
| 1788560179 | 29.44° C | 81% | 1017.4 hPa | 0 mm | - | 42 W/m² | - |
| 1788559879 | 29.44° C | 81% | 1017.4 hPa | 0 mm | - | 37 W/m² | - |
| 1788559574 | 29.44° C | 81% | 1017.3 hPa | 0 mm | - | 35 W/m² | - |
| 1788559270 | 29.44° C | 80% | 1017.4 hPa | 0 mm | - | 36 W/m² | - |
| 1788558970 | 29.44° C | 80% | 1017.6 hPa | 0 mm | - | 41 W/m² | - |
| 1788558666 | 30° C | 80% | 1017.7 hPa | 0 mm | - | 40 W/m² | - |
| 1788558361 | 30° C | 79% | 1017.6 hPa | 0 mm | - | 38 W/m² | - |
| 1788558056 | 30° C | 80% | 1017.8 hPa | 0 mm | - | 39 W/m² | - |
| 1788557754 | 30° C | 79% | 1017.7 hPa | 0 mm | - | 40 W/m² | - |
| 1788557451 | 30° C | 79% | 1017.8 hPa | 0 mm | - | 44 W/m² | - |
| 1788557150 | 30° C | 81% | 1017.5 hPa | 0 mm | - | 79 W/m² | - |
* Rain latest hour (hover to see other rain measurements)
** Current wind speed in m/s (hover to see current wind gust speed)